#timestamp,LO_Frequency,Hit,StdDev 
1657796415.6,286046996.9,N
1657796435.4,286047001.9,N
1657796455.3,286047007.1,N
1657796475.1,286047008.7,N
1657796495.8,286047010.2,N
1657796515.7,286047009.0,N
1657796565.5,286047004.4,E
1657796575.5,286046999.8,N
1657796595.3,286047000.6,P
1657796615.1,286047000.2,N
1657796635.9,286047002.8,Y
1657796655.7,286047001.7,P
1657796675.6,286047006.0,P
1657796695.4,286047005.8,N
1657796715.2,286047003.2,N
1657796735.1,286047001.3,N
1657796736.0,286047001.3,N
1657796755.8,286047003.8,N
1657796775.6,286046999.7,N
1657796795.5,286046992.9,Y
1657796815.4,286046984.5,P
1657796835.2,286046981.2,N
1657796855.0,286046974.3,N
1657796856.0,286046974.3,N
1657796875.8,286046971.0,N
1657796895.6,286046968.8,N
1657796915.5,286046960.7,Y
1657796935.3,286046980.8,P
1657796955.1,286046978.1,P
1657796975.9,286046974.8,P
1657796995.7,286046973.6,Y
1657797015.6,286046994.3,P
1657797035.4,286046996.5,N
1657797055.3,286046998.5,N
1657797075.1,286046997.3,N
1657797076.0,286046997.3,N
1657797095.8,286046994.1,N
1657797115.7,286046994.2,N
1657797135.5,286046993.6,N
1657797155.3,286046997.6,N
1657797175.2,286046995.6,N
1657797195.0,286046991.7,N
1657797195.9,286046991.7,N
1657797215.8,286046990.4,N
1657797235.6,286046988.1,N
1657797255.4,286046982.3,Y
1657797275.3,286046987.2,P
1657797295.1,286046988.2,P
1657797315.8,286046987.1,P
1657797335.7,286046988.7,Y
1657797355.5,286047004.0,P
1657797375.4,286046996.7,N
1657797395.2,286046996.8,N
1657797415.0,286046994.7,N
1657797415.9,286046994.7,N
1657797435.8,286046990.6,N
1657797455.6,286046992.8,N
1657797475.4,286046993.5,N
1657797495.3,286046996.0,N
1657797515.1,286046997.1,N
1657797535.9,286046997.7,N
1657797555.7,286046997.7,N
1657797575.5,286047000.6,N
1657797595.4,286046999.9,N
1657797615.2,286047000.5,N
1657797635.0,286046998.4,N
1657797635.9,286046998.4,N
1657797655.8,286046998.5,N
1657797675.6,286047001.0,N
1657797695.5,286046996.1,N
1657797715.3,286046993.5,N
1657797735.1,286046994.4,N
1657797755.9,286046992.3,N
1657797775.7,286046992.8,N
1657797795.5,286046993.2,N
1657797815.4,286046992.6,N
1657797835.2,286046990.1,N
1657797855.1,286046990.8,N
1657797856.0,286046990.8,N
1657797875.8,286046992.0,N
1657797895.6,286046991.3,N
1657797915.5,286046989.8,Y
1657797935.3,286046993.6,P
1657797955.1,286046993.6,P
1657797975.9,286046995.9,P
1657797995.7,286046995.2,Y
1657798015.6,286047000.1,P
1657798035.4,286047000.6,N
1657798055.2,286047000.2,N
1657798075.1,286046998.3,N
1657798076.0,286046998.3,N
1657798095.8,286046999.5,N
1657798115.6,286046995.3,N
1657798135.5,286046996.3,N
1657798155.3,286046992.2,Y
1657798175.2,286046993.0,P
1657798195.9,286046987.0,P
1657798215.7,286046989.9,N
1657798235.6,286046985.3,Y
1657798255.4,286046992.3,P
1657798275.3,286046991.6,P
1657798295.1,286046987.4,P
1657798296.0,286046987.4,Y
1657798315.8,286046998.0,P
1657798335.7,286046995.4,N
1657798355.5,286046994.2,N
1657798375.3,286046992.5,N
1657798395.2,286046993.6,N
1657798415.0,286046996.4,N
1657798415.9,286046996.4,N
1657798435.8,286046996.3,N
1657798455.6,286046995.9,N
1657798475.4,286046996.4,N
1657798495.3,286046994.0,Y
1657798515.1,286046996.6,P
1657798535.8,286046997.4,P
1657798555.7,286046998.0,N
1657798575.5,286046993.3,Y
1657798595.4,286046996.8,P
1657798615.2,286046995.3,P
1657798635.0,286046991.7,P
1657798635.9,286046991.7,Y
1657798655.8,286046994.4,P
1657798675.6,286046990.8,P
1657798695.4,286046993.2,P
1657798715.3,286046988.8,Y
1657798735.1,286046999.2,P
1657798755.9,286046998.3,N
1657798775.7,286046995.4,N
1657798795.5,286046992.3,Y
1657798815.4,286046993.6,P
1657798835.2,286046994.6,P
1657798855.1,286046992.7,P
1657798856.0,286046992.7,Y
1657798875.8,286046994.1,P
1657798895.6,286046992.9,P
1657798915.5,286046993.8,P
1657798935.3,286046996.4,Y
1657798955.1,286047004.4,P
1657798975.9,286047006.0,N
1657798995.7,286047004.8,N
1657799015.6,286047005.3,N
1657799035.4,286047005.8,N
1657799055.2,286047004.9,N
1657799075.1,286047007.5,N
1657799076.0,286047007.5,N
1657799095.8,286047007.6,N
1657799115.6,286047007.3,N
1657799135.5,286047003.0,N
1657799155.3,286047004.2,N
1657799175.2,286047000.2,N
1657799195.9,286046998.8,N
1657799215.7,286046996.9,N
1657799235.6,286047000.3,N
1657799255.4,286046999.9,N
1657799275.2,286047000.1,N
1657799295.1,286047000.2,N
1657799296.0,286047000.2,N
1657799315.8,286047002.5,N
1657799335.7,286047000.9,N
1657799355.5,286046998.8,N
1657799375.3,286047001.2,N
1657799395.2,286046999.5,N
1657799415.0,286046997.3,N
1657799415.9,286046997.3,N
1657799435.7,286046995.0,N
1657799455.6,286046995.1,N
1657799475.4,286046993.8,N
1657799495.3,286046992.4,N
1657799515.1,286046991.9,N
1657799535.8,286046990.9,N
1657799555.7,286046988.0,N
1657799575.5,286046984.3,Y
1657799595.4,286046984.1,P
1657799615.2,286046984.1,N
1657799635.0,286046986.0,N
1657799635.9,286046986.0,N
1657799655.8,286046984.2,N
1657799675.6,286046983.8,N
1657799695.4,286046986.3,N
1657799715.3,286046986.4,N
1657799735.1,286046984.5,Y
1657799755.9,286046997.2,P
1657799775.7,286046995.4,N
1657799795.5,286046993.4,N
1657799815.4,286046995.6,N
1657799835.2,286046996.0,N
1657799855.0,286046995.1,N
1657799855.9,286046995.1,N
1657799875.8,286046996.9,N
1657799895.6,286046997.3,N
1657799915.5,286047011.9,Y
1657799935.3,286046999.9,P
1657799955.1,286046996.8,N
1657799975.9,286047000.5,N
1657799995.7,286047003.8,N
